Manchester, NH

5:40 AM EDT on August 24, 2016 (GMT -0400)
Manchester

Weather History for KMHT - October, 2012

Change the Weather History Date:

Saturday, October 6, 2012

  Actual Average Record
Temperature  
Mean Temperature 66 °F 54 °F  
Max Temperature 78 °F 64 °F 82 °F (1963)
Min Temperature 53 °F 44 °F 22 °F (1984)
Degree Days  
Heating Degree Days 0    
Cooling Degree Days 0    
Growing Degree Days 16 (Base 50)    
Moisture  
Dew Point 54 °F    
Average Humidity 73    
Maximum Humidity 90    
Minimum Humidity 45    
Precipitation  
Precipitation 0.03 in 0.14 in 3.78 in (1962)
Month to date precipitation 0.81  
Year to date precipitation 33.88  
Snow  
Snow 0.00 in - - ()
Month to date snowfall  
Since 1 July snowfall  
Snow Depth -    
Sea Level Pressure  
Sea Level Pressure 29.82 in    
Wind  
Wind Speed 5 mph (SW)    
Max Wind Speed 14 mph    
Max Gust Speed 21 mph    
Visibility 10 miles    
Events Rain    
T = Trace of Precipitation, MM = Missing Value Source: NWS Daily Summary

Daily Weather History Graph

Daily Weather History Graph

Search for Another Location

Airport or City:

Trip Planner

Search our weather history database for the weather conditions in past years. The results will help you decide how hot, cold, wet, or windy it might be!

Date:

Astronomy

Oct. 06, 2012 Rise Set
Actual Time 6:49 AM EDT 6:17 PM EDT
Civil Twilight 6:20 AM EDT 6:45 PM EDT
Nautical Twilight 5:48 AM EDT 7:18 PM EDT
Astronomical Twilight 5:15 AM EDT 7:51 PM EDT
Moon 10:23 PM EDT (10/6) 12:48 PM EDT (10/6)
Length of Visible Light 12h 24m
Length of Day
11h 28m
Waning Gibbous, 65% of the Moon is Illuminated
Oct 6
Waning Gibbous
Oct 8
Last Quarter
Oct 15
New
Oct 21
First Quarter
Oct 29
Full

Hourly Weather History & Observations

Time (EDT) Temp. Dew Point Humidity Pressure Visibility Wind Dir Wind Speed Gust Speed Precip Events Conditions
12:53 AM 61.0 °F 55.9 °F 83% 29.91 in 10.0 mi SSE 5.8 mph - N/A   Mostly Cloudy
1:53 AM 61.0 °F 55.9 °F 83% 29.90 in 10.0 mi Calm Calm - N/A   Mostly Cloudy
2:53 AM 61.0 °F 55.0 °F 81% 29.88 in 10.0 mi Calm Calm - N/A   Mostly Cloudy
3:53 AM 59.0 °F 55.0 °F 87% 29.87 in 10.0 mi Calm Calm - N/A   Scattered Clouds
4:53 AM 59.0 °F 55.0 °F 87% 29.86 in 10.0 mi South 3.5 mph - N/A   Clear
5:53 AM 59.0 °F 55.0 °F 87% 29.85 in 9.0 mi Calm Calm - N/A   Clear
6:53 AM 57.9 °F 55.0 °F 90% 29.84 in 6.0 mi South 4.6 mph - N/A   Clear
7:53 AM 59.0 °F 55.9 °F 90% 29.83 in 6.0 mi South 4.6 mph - N/A   Clear
8:53 AM 63.0 °F 57.0 °F 81% 29.83 in 8.0 mi South 6.9 mph - N/A   Clear
9:53 AM 68.0 °F 57.9 °F 70% 29.82 in 10.0 mi South 9.2 mph - N/A   Clear
10:53 AM 70.0 °F 57.0 °F 63% 29.80 in 10.0 mi South 12.7 mph - N/A   Clear
11:53 AM 73.0 °F 57.0 °F 57% 29.77 in 10.0 mi South 11.5 mph - N/A   Clear
12:53 PM 73.9 °F 57.0 °F 55% 29.73 in 10.0 mi South 13.8 mph - N/A   Clear
1:53 PM 77.0 °F 57.0 °F 50% 29.69 in 10.0 mi South 11.5 mph 18.4 mph N/A   Scattered Clouds
2:53 PM 77.0 °F 54.0 °F 45% 29.68 in 10.0 mi SW 13.8 mph 20.7 mph N/A   Overcast
3:53 PM 75.9 °F 55.0 °F 48% 29.68 in 10.0 mi SW 10.4 mph 20.7 mph N/A   Overcast
4:53 PM 66.0 °F 60.1 °F 81% 29.74 in 10.0 mi West 8.1 mph 17.3 mph 0.01 in Rain Light Rain
5:53 PM 62.1 °F 54.0 °F 75% 29.78 in 10.0 mi WNW 9.2 mph - 0.02 in   Overcast
6:53 PM 59.0 °F 51.8 °F 77% 29.78 in 9.0 mi NW 8.1 mph - N/A Rain Light Rain
7:53 PM 57.9 °F 48.0 °F 70% 29.85 in 10.0 mi WNW 5.8 mph - 0.00 in   Partly Cloudy
8:53 PM 55.9 °F 48.0 °F 75% 29.88 in 10.0 mi West 4.6 mph - N/A   Scattered Clouds
9:53 PM 55.0 °F 46.9 °F 74% 29.91 in 10.0 mi West 5.8 mph - N/A   Partly Cloudy
10:53 PM 54.0 °F 44.1 °F 69% 29.92 in 10.0 mi West 3.5 mph - N/A   Clear
11:53 PM 53.1 °F 42.1 °F 66% 29.93 in 10.0 mi West 5.8 mph - N/A   Clear